Location: ????????
(55.6189°N, 38.3031°E)
Time: 19:41:26
(UTC+00:00)

Tsikada Rocket - Pass Details

Date: 15 November 2019
Orbit: 958 x 1009 km, 82.9° (Epoch: 07 December)

Event Time Altitude Azimuth Distance (km) Brightness Sun altitude
Rises 03:38:51 0° 347° (NNW) 3,755 6.8 -11.3°
Reaches altitude 10° 03:41:26 10° 344° (NNW) 2,799 6.1 -11.0°
Maximum altitude 03:47:45 61° 266° (W) 1,129 4.1 -10.1°
Drops below altitude 10° 03:53:58 10° 188° (S) 2,758 6.5 -9.3°
Sets 03:56:30 0° 185° (S) 3,696 7.2 -8.9°
